TimeEST,TemperatureF,Dew PointF,Humidity,Sea Level PressureIn,VisibilityMPH,Wind Direction,Wind SpeedMPH,Gust SpeedMPH,PrecipitationIn,Events,Conditions,WindDirDegrees,DateUTC
12:15 AM,42.8,42.8,100,30.35,1.2,North,3.5,-,N/A,,Unknown,350,2012-11-29 05:15:00
12:35 AM,42.8,42.8,100,30.35,1.8,Calm,Calm,-,N/A,,Unknown,0,2012-11-29 05:35:00
12:55 AM,42.8,42.8,100,30.35,0.8,Calm,Calm,-,N/A,,Unknown,0,2012-11-29 05:55:00
1:15 AM,41.0,41.0,100,30.34,0.8,North,3.5,-,N/A,,Unknown,360,2012-11-29 06:15:00
1:35 AM,41.0,39.2,93,30.34,2.5,Calm,Calm,-,N/A,,Unknown,0,2012-11-29 06:35:00
1:55 AM,41.0,41.0,100,30.34,1.0,Calm,Calm,-,N/A,,Unknown,0,2012-11-29 06:55:00
2:15 AM,42.8,42.8,100,30.34,2.0,NNE,3.5,-,N/A,,Unknown,30,2012-11-29 07:15:00
2:35 AM,41.0,39.2,93,30.34,1.0,Calm,Calm,-,N/A,,Unknown,0,2012-11-29 07:35:00
2:55 AM,41.0,41.0,100,30.34,0.5,NNE,3.5,-,N/A,,Unknown,30,2012-11-29 07:55:00
3:15 AM,41.0,41.0,100,30.34,1.0,Calm,Calm,-,N/A,,Unknown,0,2012-11-29 08:15:00
3:35 AM,41.0,41.0,100,30.34,1.2,Calm,Calm,-,N/A,,Unknown,0,2012-11-29 08:35:00
3:55 AM,42.8,42.8,100,30.34,2.5,Calm,Calm,-,N/A,,Unknown,0,2012-11-29 08:55:00
4:15 AM,42.8,42.8,100,30.34,2.0,Calm,Calm,-,N/A,,Unknown,0,2012-11-29 09:15:00
4:35 AM,41.0,41.0,100,30.34,2.0,Calm,Calm,-,N/A,,Unknown,0,2012-11-29 09:35:00
4:55 AM,41.0,41.0,100,30.34,3.0,NE,3.5,-,N/A,,Unknown,40,2012-11-29 09:55:00
5:15 AM,42.8,42.8,100,30.34,4.0,NE,3.5,-,N/A,,Unknown,40,2012-11-29 10:15:00
5:35 AM,42.8,42.8,100,30.34,3.0,Calm,Calm,-,N/A,,Unknown,0,2012-11-29 10:35:00
5:55 AM,41.0,41.0,100,30.34,3.0,Calm,Calm,-,N/A,,Unknown,0,2012-11-29 10:55:00
6:15 AM,41.0,41.0,100,30.35,1.0,Calm,Calm,-,N/A,,Unknown,0,2012-11-29 11:15:00
6:35 AM,39.2,39.2,100,30.35,1.5,Calm,Calm,-,N/A,,Unknown,0,2012-11-29 11:35:00
6:55 AM,39.2,39.2,100,30.35,2.0,NNE,3.5,-,N/A,,Unknown,30,2012-11-29 11:55:00
7:15 AM,39.2,39.2,100,30.36,4.0,NNE,3.5,-,N/A,,Unknown,30,2012-11-29 12:15:00
7:35 AM,39.2,39.2,100,30.37,4.0,Calm,Calm,-,N/A,,Unknown,0,2012-11-29 12:35:00
7:55 AM,42.8,42.8,100,30.38,5.0,NE,3.5,-,N/A,,Unknown,50,2012-11-29 12:55:00
8:15 AM,42.8,42.8,100,30.38,7.0,NE,4.6,-,N/A,,Unknown,40,2012-11-29 13:15:00
8:35 AM,44.6,44.6,100,30.38,10.0,NE,3.5,-,N/A,,Unknown,50,2012-11-29 13:35:00
8:55 AM,46.4,44.6,93,30.39,10.0,ENE,4.6,-,N/A,,Unknown,60,2012-11-29 13:55:00
9:15 AM,48.2,44.6,87,30.39,7.0,East,9.2,-,N/A,,Unknown,80,2012-11-29 14:15:00
9:35 AM,51.8,44.6,76,30.39,10.0,East,11.5,-,N/A,,Unknown,80,2012-11-29 14:35:00
9:55 AM,53.6,44.6,72,30.39,10.0,East,9.2,-,N/A,,Clear,80,2012-11-29 14:55:00
10:15 AM,55.4,46.4,72,30.39,10.0,East,10.4,-,N/A,,Clear,80,2012-11-29 15:15:00
10:35 AM,57.2,46.4,67,30.39,10.0,East,10.4,-,N/A,,Clear,90,2012-11-29 15:35:00
10:55 AM,60.8,48.2,63,30.39,10.0,East,9.2,-,N/A,,Clear,80,2012-11-29 15:55:00
11:15 AM,60.8,48.2,63,30.39,10.0,East,10.4,-,N/A,,Clear,90,2012-11-29 16:15:00
11:35 AM,62.6,48.2,59,30.38,10.0,East,10.4,-,N/A,,Clear,80,2012-11-29 16:35:00
11:55 AM,62.6,50.0,63,30.37,10.0,East,6.9,-,N/A,,Clear,80,2012-11-29 16:55:00
12:15 PM,64.4,50.0,59,30.37,10.0,ENE,6.9,-,N/A,,Clear,60,2012-11-29 17:15:00
12:35 PM,66.2,51.8,60,30.36,10.0,ESE,9.2,-,N/A,,Clear,110,2012-11-29 17:35:00
12:55 PM,66.2,51.8,60,30.36,10.0,East,6.9,-,N/A,,Clear,100,2012-11-29 17:55:00
1:15 PM,66.2,51.8,60,30.34,10.0,ESE,4.6,-,N/A,,Clear,110,2012-11-29 18:15:00
1:35 PM,68.0,51.8,56,30.33,10.0,East,6.9,-,N/A,,Clear,90,2012-11-29 18:35:00
2:15 PM,69.8,51.8,53,30.31,10.0,SE,9.2,-,N/A,,Clear,130,2012-11-29 19:15:00
2:35 PM,69.8,51.8,53,30.31,7.0,NE,6.9,-,N/A,,Clear,50,2012-11-29 19:35:00
2:55 PM,68.0,51.8,56,30.31,10.0,East,6.9,-,N/A,,Clear,80,2012-11-29 19:55:00
3:15 PM,69.8,51.8,53,30.31,10.0,East,5.8,-,N/A,,Scattered Clouds,80,2012-11-29 20:15:00
3:35 PM,66.2,53.6,64,30.31,10.0,ENE,6.9,-,N/A,,Scattered Clouds,70,2012-11-29 20:35:00
3:55 PM,66.2,53.6,64,30.31,10.0,ENE,5.8,-,N/A,,Scattered Clouds,60,2012-11-29 20:55:00
4:15 PM,66.2,53.6,64,30.31,10.0,ENE,6.9,-,N/A,,Scattered Clouds,70,2012-11-29 21:15:00
4:35 PM,68.0,53.6,60,30.31,10.0,East,9.2,-,N/A,,Mostly Cloudy,90,2012-11-29 21:35:00
4:55 PM,64.4,53.6,68,30.31,10.0,East,8.1,-,N/A,,Scattered Clouds,80,2012-11-29 21:55:00
5:15 PM,62.6,51.8,68,30.31,10.0,East,5.8,-,N/A,,Scattered Clouds,90,2012-11-29 22:15:00
5:35 PM,62.6,51.8,68,30.31,10.0,East,6.9,-,N/A,,Scattered Clouds,90,2012-11-29 22:35:00
5:55 PM,60.8,51.8,72,30.32,10.0,East,6.9,-,N/A,,Clear,80,2012-11-29 22:55:00
6:15 PM,59.0,51.8,77,30.32,10.0,East,8.1,-,N/A,,Clear,90,2012-11-29 23:15:00
6:35 PM,57.2,51.8,82,30.33,10.0,East,8.1,-,N/A,,Clear,100,2012-11-29 23:35:00
6:55 PM,57.2,51.8,82,30.33,10.0,East,6.9,-,N/A,,Clear,90,2012-11-29 23:55:00
7:15 PM,55.4,51.8,88,30.34,10.0,East,5.8,-,N/A,,Scattered Clouds,90,2012-11-30 00:15:00
7:35 PM,53.6,50.0,88,30.34,10.0,East,5.8,-,N/A,,Scattered Clouds,80,2012-11-30 00:35:00
7:55 PM,53.6,50.0,88,30.34,10.0,East,4.6,-,N/A,,Scattered Clouds,80,2012-11-30 00:55:00
8:15 PM,53.6,50.0,88,30.35,10.0,East,3.5,-,N/A,,Scattered Clouds,80,2012-11-30 01:15:00
8:35 PM,53.6,48.2,82,30.35,10.0,ENE,3.5,-,N/A,,Clear,70,2012-11-30 01:35:00
8:55 PM,51.8,48.2,88,30.35,10.0,ENE,5.8,-,N/A,,Clear,70,2012-11-30 01:55:00
9:15 PM,51.8,48.2,88,30.35,10.0,ENE,3.5,-,N/A,,Clear,70,2012-11-30 02:15:00
9:35 PM,51.8,48.2,88,30.35,10.0,Calm,Calm,-,N/A,,Clear,0,2012-11-30 02:35:00
9:55 PM,51.8,46.4,82,30.35,7.0,ENE,3.5,-,N/A,,Clear,70,2012-11-30 02:55:00
10:15 PM,50.0,46.4,87,30.35,10.0,East,4.6,-,N/A,,Clear,80,2012-11-30 03:15:00
10:35 PM,48.2,46.4,93,30.34,10.0,ENE,4.6,-,N/A,,Unknown,70,2012-11-30 03:35:00
10:55 PM,48.2,46.4,93,30.35,7.0,ENE,3.5,-,N/A,,Unknown,60,2012-11-30 03:55:00
11:15 PM,48.2,44.6,87,30.34,7.0,ENE,3.5,-,N/A,,Unknown,70,2012-11-30 04:15:00
11:35 PM,48.2,44.6,87,30.34,10.0,ENE,3.5,-,N/A,,Unknown,70,2012-11-30 04:35:00
11:55 PM,48.2,44.6,87,30.34,7.0,ENE,3.5,-,N/A,,Unknown,60,2012-11-30 04:55:00